Location: Del Amo
(33.8464°N, 118.2104°W)
Time: 06:42:00
(UTC+00:00)

Vanguard 1 Rocket - Pass Details

Date: 20 September 2024
Orbit: 650 x 4218 km, 34.3° (Epoch: 09 October)

Event Time Altitude Azimuth Distance (km) Brightness Sun altitude
Exits shadow 13:42:01 - 279° (W) 6,033 10.9 -0.4°
Rises 13:42:07 0° 279° (W) 6,011 10.9 -0.4°
Reaches altitude 10° 13:45:20 10° 279° (W) 5,367 10.7 0.3°
Maximum altitude 14:03:47 86° 194° (SSW) 3,827 10.7 4.1°
Drops below altitude 10° 14:30:33 10° 109° (ESE) 7,287 14.1 9.6°
Sets 14:35:52 0° 109° (ESE) 8,123 14.1 10.7°
